"Zeitpunkt";"timestamp";"D0";"V0";"V0_max";"T0";"F0";"G0";"S0";"R0";"M0";"T1";"L0";"L0_nn"
"30.10.2022, 00:00";"1667088001";"155";"4";"8";"190";"57";"9";"0";"0";"0";"169";"0";"10051"
"30.10.2022, 00:10";"1667088601";"154";"4";"7";"189";"56";"9";"0";"0";"0";"171";"0";"10051"
"30.10.2022, 00:20";"1667089201";"157";"4";"7";"187";"58";"9";"0";"0";"0";"171";"0";"10051"
"30.10.2022, 00:30";"1667089801";"161";"4";"8";"187";"57";"9";"0";"0";"0";"172";"0";"10051"
"30.10.2022, 00:40";"1667090401";"152";"5";"9";"188";"57";"9";"0";"0";"0";"174";"0";"10051"
"30.10.2022, 00:50";"1667091001";"156";"4";"8";"186";"58";"9";"0";"0";"0";"170";"0";"10051"
"30.10.2022, 01:00";"1667091601";"157";"4";"7";"184";"59";"9";"0";"0";"0";"166";"0";"10051"
"30.10.2022, 01:10";"1667092201";"157";"4";"7";"182";"60";"9";"0";"0";"0";"165";"0";"10051"
"30.10.2022, 01:20";"1667092801";"162";"4";"7";"179";"61";"9";"0";"0";"0";"164";"0";"10051"
"30.10.2022, 01:30";"1667093401";"162";"4";"7";"178";"62";"9";"0";"0";"0";"163";"0";"10051"
"30.10.2022, 01:40";"1667094002";"166";"3";"6";"176";"62";"8";"0";"0";"0";"161";"0";"10051"
"30.10.2022, 01:50";"1667094601";"162";"4";"7";"174";"63";"9";"0";"0";"0";"159";"0";"10051"
"30.10.2022, 02:00";"1667095201";"163";"5";"7";"173";"65";"9";"0";"0";"0";"159";"0";"10051"
"30.10.2022, 02:10";"1667095801";"165";"4";"8";"170";"65";"8";"0";"0";"0";"151";"0";"10051"
"30.10.2022, 02:20";"1667096401";"161";"4";"7";"168";"66";"9";"0";"0";"0";"148";"0";"10051"
"30.10.2022, 02:30";"1667097001";"159";"4";"6";"167";"66";"9";"0";"0";"0";"152";"0";"10049"
"30.10.2022, 02:40";"1667097601";"164";"4";"6";"165";"67";"9";"0";"0";"0";"150";"0";"10049"
"30.10.2022, 02:50";"1667098201";"167";"3";"5";"162";"68";"8";"0";"0";"0";"149";"0";"10049"
"30.10.2022, 02:00";"1667098801";"169";"4";"6";"162";"68";"8";"0";"0";"0";"151";"0";"10049"
"30.10.2022, 02:10";"1667099401";"169";"4";"6";"162";"68";"8";"0";"0";"0";"151";"0";"10049"
"30.10.2022, 02:20";"1667100001";"168";"5";"7";"163";"68";"8";"0";"0";"0";"153";"0";"10049"
"30.10.2022, 02:30";"1667100601";"168";"4";"6";"163";"68";"8";"0";"0";"0";"152";"0";"10051"
"30.10.2022, 02:40";"1667101201";"170";"5";"7";"162";"68";"8";"0";"0";"0";"151";"0";"10051"
"30.10.2022, 02:50";"1667101801";"165";"4";"7";"160";"70";"8";"0";"0";"0";"146";"0";"10051"
"30.10.2022, 03:00";"1667102401";"171";"5";"7";"159";"70";"8";"0";"0";"0";"145";"0";"10051"
"30.10.2022, 03:10";"1667103001";"170";"5";"7";"158";"70";"8";"0";"0";"0";"145";"0";"10051"
"30.10.2022, 03:20";"1667103601";"167";"4";"6";"157";"70";"8";"0";"0";"0";"145";"0";"10051"
"30.10.2022, 03:30";"1667104201";"164";"4";"6";"155";"72";"8";"0";"0";"0";"142";"0";"10054"
"30.10.2022, 03:40";"1667104801";"170";"5";"7";"153";"72";"8";"0";"0";"0";"140";"0";"10054"
"30.10.2022, 03:50";"1667105401";"166";"4";"6";"150";"73";"8";"0";"0";"0";"135";"0";"10054"
"30.10.2022, 04:00";"1667106001";"162";"4";"7";"149";"74";"8";"0";"0";"0";"133";"0";"10054"
"30.10.2022, 04:10";"1667106601";"162";"3";"6";"146";"75";"8";"0";"0";"0";"133";"0";"10054"
"30.10.2022, 04:20";"1667107201";"161";"4";"6";"147";"74";"8";"0";"0";"0";"131";"0";"10054"
"30.10.2022, 04:30";"1667107801";"154";"2";"5";"144";"75";"9";"0";"0";"0";"122";"0";"10052"
"30.10.2022, 04:40";"1667108401";"143";"2";"4";"144";"75";"9";"0";"0";"0";"121";"0";"10052"
"30.10.2022, 04:50";"1667109001";"145";"2";"4";"143";"76";"9";"0";"0";"0";"124";"0";"10052"
"30.10.2022, 05:00";"1667109601";"163";"3";"5";"143";"75";"8";"0";"0";"0";"130";"0";"10052"
"30.10.2022, 05:10";"1667110201";"159";"4";"6";"144";"75";"8";"0";"0";"0";"129";"0";"10052"
"30.10.2022, 05:20";"1667110801";"155";"3";"6";"144";"76";"9";"0";"0";"0";"127";"0";"10052"
"30.10.2022, 05:30";"1667111401";"161";"3";"6";"141";"76";"9";"0";"0";"0";"126";"0";"10052"
"30.10.2022, 05:40";"1667112001";"170";"3";"5";"139";"77";"17";"0";"0";"0";"124";"0";"10052"
"30.10.2022, 05:50";"1667112601";"145";"2";"5";"139";"78";"61";"0";"0";"0";"119";"0";"10052"
"30.10.2022, 06:00";"1667113201";"146";"2";"4";"136";"80";"107";"0";"0";"0";"122";"0";"10052"
"30.10.2022, 06:10";"1667113801";"146";"2";"6";"138";"79";"659";"10";"0";"0";"128";"0";"10052"
"30.10.2022, 06:20";"1667114401";"159";"2";"5";"140";"77";"967";"10";"0";"0";"133";"0";"10052"
"30.10.2022, 06:30";"1667115001";"160";"3";"5";"143";"76";"1,161";"10";"0";"0";"137";"0";"10055"
"30.10.2022, 06:40";"1667115601";"157";"2";"5";"146";"75";"1,258";"10";"0";"0";"138";"0";"10055"
"30.10.2022, 06:50";"1667116201";"163";"2";"4";"148";"73";"1,069";"10";"0";"0";"143";"0";"10055"
"30.10.2022, 07:00";"1667116801";"144";"2";"3";"150";"75";"1,678";"10";"0";"0";"145";"0";"10055"
"30.10.2022, 07:10";"1667117401";"152";"2";"5";"156";"71";"1,706";"10";"0";"0";"150";"0";"10055"
"30.10.2022, 07:20";"1667118001";"149";"2";"5";"163";"69";"1,816";"10";"0";"0";"160";"0";"10055"
"30.10.2022, 07:30";"1667118601";"146";"3";"7";"170";"66";"2,134";"10";"0";"0";"179";"0";"10051"
"30.10.2022, 07:40";"1667119201";"154";"3";"6";"176";"64";"2,191";"10";"0";"0";"188";"0";"10051"
"30.10.2022, 07:50";"1667119801";"153";"4";"8";"182";"62";"2,052";"10";"0";"0";"199";"0";"10051"
"30.10.2022, 08:00";"1667120401";"148";"3";"8";"187";"60";"2,319";"10";"0";"0";"205";"0";"10051"
"30.10.2022, 08:10";"1667121001";"150";"4";"9";"190";"60";"2,415";"10";"0";"0";"204";"0";"10051"
"30.10.2022, 08:20";"1667121601";"154";"5";"10";"194";"59";"2,418";"10";"0";"0";"212";"0";"10051"
"30.10.2022, 08:30";"1667122201";"144";"5";"12";"196";"59";"2,469";"10";"0";"0";"206";"0";"10047"
"30.10.2022, 08:40";"1667122801";"139";"5";"10";"198";"58";"2,417";"10";"0";"0";"207";"0";"10047"
"30.10.2022, 08:50";"1667123401";"159";"4";"9";"201";"57";"2,434";"10";"0";"0";"208";"0";"10047"
"30.10.2022, 09:00";"1667124001";"159";"5";"11";"204";"57";"2,499";"10";"0";"0";"212";"0";"10047"
"30.10.2022, 09:10";"1667124601";"157";"4";"10";"207";"56";"2,158";"10";"0";"0";"214";"0";"10047"
"30.10.2022, 09:20";"1667125201";"140";"3";"8";"209";"56";"2,218";"10";"0";"0";"213";"0";"10047"
"30.10.2022, 09:30";"1667125801";"141";"3";"8";"211";"57";"2,023";"10";"0";"0";"217";"0";"10047"
"30.10.2022, 09:40";"1667126401";"152";"4";"10";"212";"56";"2,026";"10";"0";"0";"213";"0";"10047"
"30.10.2022, 09:50";"1667127001";"140";"5";"10";"214";"54";"1,878";"10";"0";"0";"220";"0";"10047"
"30.10.2022, 10:00";"1667127601";"146";"3";"8";"216";"54";"2,030";"10";"0";"0";"220";"0";"10047"
"30.10.2022, 10:10";"1667128202";"148";"4";"10";"219";"55";"1,862";"10";"0";"0";"231";"0";"10047"
"30.10.2022, 10:20";"1667128801";"153";"4";"8";"222";"52";"2,071";"10";"0";"0";"223";"0";"10047"
"30.10.2022, 10:30";"1667129401";"149";"4";"8";"224";"51";"1,935";"10";"0";"0";"226";"0";"10043"
"30.10.2022, 10:40";"1667130001";"154";"3";"9";"224";"51";"1,464";"10";"0";"0";"220";"0";"10043"
"30.10.2022, 10:50";"1667130601";"153";"6";"14";"224";"52";"1,574";"10";"0";"0";"227";"0";"10043"
"30.10.2022, 11:00";"1667131201";"156";"3";"8";"224";"51";"1,617";"10";"0";"0";"218";"0";"10043"
"30.10.2022, 11:10";"1667131801";"159";"5";"11";"222";"51";"1,042";"10";"0";"0";"216";"0";"10043"
"30.10.2022, 11:20";"1667132401";"171";"5";"9";"222";"52";"1,063";"10";"0";"0";"220";"0";"10043"
"30.10.2022, 11:30";"1667133001";"147";"4";"9";"222";"53";"1,057";"10";"0";"0";"216";"0";"10041"
"30.10.2022, 11:40";"1667133601";"165";"3";"8";"220";"53";"928";"10";"0";"0";"210";"0";"10041"
"30.10.2022, 11:50";"1667134201";"172";"4";"9";"219";"52";"880";"10";"0";"0";"211";"0";"10041"
"30.10.2022, 12:00";"1667134801";"164";"4";"9";"219";"53";"1,078";"10";"0";"0";"207";"0";"10041"
"30.10.2022, 12:10";"1667135401";"168";"4";"8";"218";"53";"1,062";"10";"0";"0";"205";"0";"10041"
"30.10.2022, 12:20";"1667136002";"162";"4";"9";"218";"53";"972";"10";"0";"0";"203";"0";"10041"
"30.10.2022, 12:30";"1667136601";"159";"3";"9";"218";"54";"845";"10";"0";"0";"202";"0";"10039"
"30.10.2022, 12:40";"1667137201";"171";"4";"9";"217";"54";"573";"10";"0";"0";"200";"0";"10039"
"30.10.2022, 12:50";"1667137801";"175";"4";"8";"215";"56";"496";"9";"0";"0";"197";"0";"10039"
"30.10.2022, 13:00";"1667138401";"180";"4";"6";"214";"55";"472";"7";"0";"0";"198";"0";"10039"
"30.10.2022, 13:10";"1667139001";"177";"4";"8";"214";"55";"633";"10";"0";"0";"201";"0";"10039"
"30.10.2022, 13:20";"1667139601";"178";"4";"9";"214";"58";"734";"10";"0";"0";"197";"0";"10039"
"30.10.2022, 13:30";"1667140201";"178";"3";"7";"213";"56";"757";"10";"0";"0";"197";"0";"10039"
"30.10.2022, 13:40";"1667140801";"174";"3";"6";"213";"57";"732";"10";"0";"0";"193";"0";"10039"
"30.10.2022, 13:50";"1667141401";"159";"2";"5";"213";"56";"612";"10";"0";"0";"190";"0";"10039"
"30.10.2022, 14:00";"1667142001";"156";"2";"4";"212";"57";"390";"2";"0";"0";"188";"0";"10039"
"30.10.2022, 14:10";"1667142601";"167";"2";"5";"211";"57";"305";"0";"0";"0";"184";"0";"10039"
"30.10.2022, 14:20";"1667143201";"150";"2";"4";"208";"59";"200";"0";"0";"0";"178";"0";"10039"
"30.10.2022, 14:30";"1667143801";"176";"1";"4";"203";"62";"668";"7";"0";"0";"176";"0";"10040"
"30.10.2022, 14:40";"1667144401";"182";"2";"3";"200";"64";"403";"6";"0";"0";"172";"0";"10040"
"30.10.2022, 14:50";"1667145001";"184";"2";"3";"196";"66";"72";"0";"0";"0";"165";"0";"10040"
"30.10.2022, 15:00";"1667145601";"181";"1";"3";"190";"69";"63";"0";"0";"0";"159";"0";"10040"
"30.10.2022, 15:10";"1667146201";"171";"2";"3";"185";"71";"41";"0";"0";"0";"152";"0";"10040"
"30.10.2022, 15:20";"1667146801";"160";"2";"3";"180";"72";"11";"0";"0";"0";"149";"0";"10040"
"30.10.2022, 15:30";"1667147401";"164";"2";"4";"179";"72";"9";"0";"0";"0";"150";"0";"10049"
"30.10.2022, 15:40";"1667148002";"163";"2";"4";"176";"74";"9";"0";"0";"0";"148";"0";"10049"
"30.10.2022, 15:50";"1667148601";"167";"3";"4";"177";"72";"9";"0";"0";"0";"159";"0";"10049"
"30.10.2022, 16:00";"1667149201";"170";"3";"5";"177";"72";"8";"0";"0";"0";"159";"0";"10049"
"30.10.2022, 16:10";"1667149801";"165";"3";"5";"174";"74";"8";"0";"0";"0";"155";"0";"10049"
"30.10.2022, 16:20";"1667150401";"168";"3";"5";"170";"76";"9";"0";"0";"0";"150";"0";"10049"
"30.10.2022, 16:30";"1667151001";"174";"3";"4";"166";"78";"8";"0";"0";"0";"145";"0";"10056"
"30.10.2022, 16:40";"1667151601";"172";"3";"5";"165";"77";"8";"0";"0";"0";"150";"0";"10056"
"30.10.2022, 16:50";"1667152201";"159";"3";"6";"165";"77";"9";"0";"0";"0";"145";"0";"10056"
"30.10.2022, 17:00";"1667152801";"157";"3";"5";"164";"76";"9";"0";"0";"0";"149";"0";"10056"
"30.10.2022, 17:10";"1667153401";"158";"3";"6";"165";"75";"9";"0";"0";"0";"149";"0";"10056"
"30.10.2022, 17:20";"1667154001";"154";"3";"6";"164";"74";"9";"0";"0";"0";"146";"0";"10056"
"30.10.2022, 17:30";"1667154601";"162";"3";"5";"163";"75";"9";"0";"0";"0";"147";"0";"10061"
"30.10.2022, 17:40";"1667155201";"168";"3";"4";"161";"75";"8";"0";"0";"0";"147";"0";"10061"
"30.10.2022, 17:50";"1667155801";"175";"3";"5";"161";"76";"8";"0";"0";"0";"148";"0";"10061"
"30.10.2022, 18:00";"1667156401";"174";"3";"5";"159";"76";"8";"0";"0";"0";"148";"0";"10061"
"30.10.2022, 18:10";"1667157001";"168";"3";"5";"159";"77";"8";"0";"0";"0";"144";"0";"10061"
"30.10.2022, 18:20";"1667157601";"165";"2";"4";"157";"77";"9";"0";"0";"0";"146";"0";"10061"
"30.10.2022, 18:30";"1667158201";"179";"3";"5";"158";"77";"8";"0";"0";"0";"148";"0";"10068"
"30.10.2022, 18:40";"1667158801";"175";"3";"5";"158";"77";"8";"0";"0";"0";"148";"0";"10068"
"30.10.2022, 18:50";"1667159401";"173";"2";"4";"156";"77";"8";"0";"0";"0";"142";"0";"10068"
"30.10.2022, 19:00";"1667160001";"180";"3";"4";"156";"77";"8";"0";"0";"0";"142";"0";"10068"
"30.10.2022, 19:10";"1667160601";"166";"2";"4";"153";"80";"9";"0";"0";"0";"136";"0";"10068"
"30.10.2022, 19:20";"1667161201";"171";"2";"4";"153";"79";"8";"0";"0";"0";"141";"0";"10068"
"30.10.2022, 19:30";"1667161801";"174";"3";"4";"151";"79";"8";"0";"0";"0";"140";"0";"10073"
"30.10.2022, 19:40";"1667162401";"174";"3";"5";"150";"79";"8";"0";"0";"0";"139";"0";"10073"
"30.10.2022, 19:50";"1667163001";"173";"3";"5";"150";"80";"8";"0";"0";"0";"138";"0";"10073"
"30.10.2022, 20:00";"1667163601";"172";"3";"5";"148";"80";"8";"0";"0";"0";"136";"0";"10073"
"30.10.2022, 20:10";"1667164201";"179";"3";"4";"147";"81";"8";"0";"0";"0";"135";"0";"10073"
"30.10.2022, 20:20";"1667164801";"174";"2";"4";"146";"81";"8";"0";"0";"0";"133";"0";"10073"
"30.10.2022, 20:30";"1667165401";"175";"2";"3";"145";"81";"8";"0";"0";"0";"133";"0";"10078"
"30.10.2022, 20:40";"1667166001";"180";"2";"3";"144";"82";"8";"0";"0";"0";"136";"0";"10078"
"30.10.2022, 20:50";"1667166602";"179";"3";"5";"142";"83";"8";"0";"0";"0";"135";"0";"10078"
"30.10.2022, 21:00";"1667167201";"189";"3";"5";"143";"83";"8";"0";"0";"0";"137";"0";"10078"
"30.10.2022, 21:10";"1667167802";"194";"3";"4";"143";"83";"8";"0";"0";"0";"136";"0";"10078"
"30.10.2022, 21:20";"1667168401";"205";"2";"4";"142";"83";"7";"0";"0";"0";"134";"0";"10078"
"30.10.2022, 21:30";"1667169001";"192";"3";"5";"141";"83";"8";"0";"0";"0";"136";"0";"10085"
"30.10.2022, 21:40";"1667169601";"183";"3";"5";"141";"83";"8";"0";"0";"0";"136";"0";"10085"
"30.10.2022, 21:50";"1667170201";"178";"3";"6";"141";"83";"8";"0";"0";"0";"136";"0";"10085"
"30.10.2022, 22:00";"1667170801";"174";"3";"5";"141";"83";"8";"0";"0";"0";"135";"0";"10085"
"30.10.2022, 22:10";"1667171401";"166";"3";"5";"142";"83";"8";"0";"0";"0";"135";"0";"10085"
"30.10.2022, 22:20";"1667172001";"169";"3";"4";"142";"83";"8";"0";"0";"0";"136";"0";"10085"
"30.10.2022, 22:30";"1667172601";"173";"2";"4";"142";"83";"8";"0";"0";"0";"138";"0";"10088"
"30.10.2022, 22:40";"1667173201";"172";"2";"4";"142";"82";"8";"0";"0";"0";"139";"0";"10088"
"30.10.2022, 22:50";"1667173802";"173";"2";"4";"143";"82";"8";"0";"0";"0";"139";"0";"10088"
"30.10.2022, 23:00";"1667174401";"167";"2";"4";"144";"82";"8";"0";"0";"0";"134";"0";"10088"
"30.10.2022, 23:10";"1667175001";"164";"2";"3";"142";"82";"9";"0";"0";"0";"127";"0";"10088"
"30.10.2022, 23:20";"1667175602";"149";"2";"3";"141";"83";"9";"0";"0";"0";"127";"0";"10088"
"30.10.2022, 23:30";"1667176201";"164";"2";"4";"140";"84";"9";"0";"0";"0";"127";"0";"10088"
"30.10.2022, 23:40";"1667176801";"168";"2";"4";"139";"84";"8";"0";"0";"0";"132";"0";"10088"
"30.10.2022, 23:50";"1667177401";"173";"2";"4";"138";"84";"8";"0";"0";"0";"127";"0";"10088"
"31.10.2022, 00:00";"1667178001";"165";"2";"4";"137";"84";"8";"0";"0";"0";"128";"0";"10088"
"31.10.2022, 00:10";"1667178601";"156";"1";"5";"136";"85";"9";"0";"0";"0";"129";"0";"10088"
"31.10.2022, 00:20";"1667179201";"164";"3";"5";"136";"85";"8";"0";"0";"0";"128";"0";"10088"
"31.10.2022, 00:30";"1667179801";"154";"2";"5";"135";"85";"9";"0";"0";"0";"128";"0";"10090"
"31.10.2022, 00:40";"1667180401";"163";"3";"5";"135";"85";"8";"0";"0";"0";"126";"0";"10090"
"31.10.2022, 00:50";"1667181001";"142";"2";"4";"134";"85";"9";"0";"0";"0";"119";"0";"10090"
"31.10.2022, 01:00";"1667181601";"148";"1";"4";"133";"86";"9";"0";"0";"0";"122";"0";"10090"
"31.10.2022, 01:10";"1667182201";"151";"1";"4";"132";"86";"9";"0";"0";"0";"116";"0";"10090"
"31.10.2022, 01:20";"1667182801";"148";"1";"3";"130";"87";"9";"0";"0";"0";"116";"0";"10090"
"31.10.2022, 01:30";"1667183401";"194";"1";"3";"128";"88";"8";"0";"0";"0";"112";"0";"10088"
"31.10.2022, 01:40";"1667184002";"193";"1";"2";"127";"88";"8";"0";"0";"0";"116";"0";"10088"
"31.10.2022, 01:50";"1667184601";"148";"1";"2";"127";"88";"9";"0";"0";"0";"115";"0";"10088"
"31.10.2022, 02:00";"1667185201";"134";"0";"2";"127";"89";"9";"0";"0";"0";"114";"0";"10088"
"31.10.2022, 02:10";"1667185801";"149";"1";"2";"127";"89";"9";"0";"0";"0";"116";"0";"10088"
"31.10.2022, 02:20";"1667186401";"156";"2";"3";"127";"88";"9";"0";"0";"0";"116";"0";"10088"
"31.10.2022, 02:30";"1667187001";"156";"1";"3";"125";"89";"9";"0";"0";"0";"116";"0";"10088"
"31.10.2022, 02:40";"1667187601";"166";"2";"4";"124";"89";"8";"0";"0";"0";"113";"0";"10088"
"31.10.2022, 02:50";"1667188201";"165";"2";"4";"124";"89";"8";"0";"0";"0";"111";"0";"10088"
"31.10.2022, 03:00";"1667188801";"158";"1";"2";"123";"89";"9";"0";"0";"0";"107";"0";"10088"
"31.10.2022, 03:10";"1667189401";"160";"1";"3";"124";"89";"9";"0";"0";"0";"114";"0";"10088"
"31.10.2022, 03:20";"1667190001";"140";"1";"3";"123";"89";"9";"0";"0";"0";"112";"0";"10088"
"31.10.2022, 03:30";"1667190601";"134";"0";"1";"123";"89";"9";"0";"0";"0";"110";"0";"10085"
"31.10.2022, 03:40";"1667191201";"147";"1";"3";"123";"89";"9";"0";"0";"0";"113";"0";"10085"
"31.10.2022, 03:50";"1667191801";"134";"1";"3";"123";"89";"9";"0";"0";"0";"112";"0";"10085"
"31.10.2022, 04:00";"1667192401";"161";"2";"4";"123";"89";"9";"0";"0";"0";"116";"0";"10085"
"31.10.2022, 04:10";"1667193001";"166";"3";"5";"122";"89";"8";"0";"0";"0";"111";"0";"10085"
"31.10.2022, 04:20";"1667193601";"150";"1";"3";"122";"89";"9";"0";"0";"0";"111";"0";"10085"
"31.10.2022, 04:30";"1667194201";"163";"1";"3";"121";"89";"9";"0";"0";"0";"111";"0";"10081"
"31.10.2022, 04:40";"1667194801";"155";"1";"3";"120";"89";"9";"0";"0";"0";"113";"0";"10081"
"31.10.2022, 04:50";"1667195402";"173";"2";"4";"120";"89";"8";"0";"0";"0";"114";"0";"10081"
"31.10.2022, 05:00";"1667196001";"166";"3";"6";"121";"90";"8";"0";"0";"0";"113";"0";"10081"
"31.10.2022, 05:10";"1667196601";"153";"2";"4";"121";"90";"9";"0";"0";"0";"113";"0";"10081"
"31.10.2022, 05:20";"1667197201";"170";"2";"3";"120";"90";"8";"0";"0";"0";"112";"0";"10081"
"31.10.2022, 05:30";"1667197802";"163";"1";"3";"120";"90";"9";"0";"0";"0";"111";"0";"10081"
"31.10.2022, 05:40";"1667198401";"173";"2";"3";"119";"90";"13";"0";"0";"0";"111";"0";"10081"
"31.10.2022, 05:50";"1667199001";"166";"1";"3";"119";"90";"46";"0";"0";"0";"112";"0";"10081"
"31.10.2022, 06:00";"1667199601";"172";"2";"4";"119";"90";"73";"0";"0";"0";"114";"0";"10081"
"31.10.2022, 06:10";"1667200201";"165";"1";"3";"119";"90";"139";"0";"0";"0";"114";"0";"10081"
"31.10.2022, 06:20";"1667200801";"171";"2";"3";"120";"90";"137";"0";"0";"0";"116";"0";"10081"
"31.10.2022, 06:30";"1667201401";"165";"1";"3";"120";"90";"161";"0";"0";"0";"116";"0";"10083"
"31.10.2022, 06:40";"1667202001";"161";"1";"2";"121";"90";"159";"0";"0";"0";"118";"0";"10083"
"31.10.2022, 06:50";"1667202602";"179";"1";"2";"121";"90";"148";"0";"0";"0";"122";"0";"10083"
"31.10.2022, 07:00";"1667203201";"144";"1";"3";"122";"89";"270";"0";"0";"0";"123";"0";"10083"
"31.10.2022, 07:10";"1667203801";"189";"1";"3";"124";"89";"282";"0";"0";"0";"126";"0";"10083"
"31.10.2022, 07:20";"1667204401";"173";"1";"3";"125";"88";"361";"4";"0";"0";"129";"0";"10083"
"31.10.2022, 07:30";"1667205001";"177";"3";"5";"126";"88";"731";"10";"0";"0";"134";"0";"10083"
"31.10.2022, 07:40";"1667205601";"172";"2";"4";"129";"87";"875";"10";"0";"0";"143";"0";"10083"
"31.10.2022, 07:50";"1667206201";"177";"1";"3";"132";"86";"1,140";"10";"0";"0";"151";"0";"10083"
"31.10.2022, 08:00";"1667206801";"155";"0";"2";"137";"85";"1,251";"10";"0";"0";"156";"0";"10083"
"31.10.2022, 08:10";"1667207401";"181";"0";"2";"141";"83";"1,407";"10";"0";"0";"160";"0";"10083"
"31.10.2022, 08:20";"1667208001";"185";"0";"2";"146";"81";"1,125";"10";"0";"0";"164";"0";"10083"
"31.10.2022, 08:30";"1667208601";"268";"0";"1";"150";"80";"778";"10";"0";"0";"164";"0";"10078"
"31.10.2022, 08:40";"1667209201";"270";"0";"1";"152";"81";"429";"4";"0";"0";"163";"0";"10078"
"31.10.2022, 08:50";"1667209801";"270";"0";"1";"153";"81";"216";"0";"0";"0";"162";"0";"10078"
"31.10.2022, 09:00";"1667210402";"263";"0";"2";"154";"80";"174";"0";"0";"0";"166";"0";"10078"
"31.10.2022, 09:10";"1667211001";"221";"0";"2";"161";"77";"566";"8";"0";"0";"185";"0";"10078"
"31.10.2022, 09:20";"1667211601";"61";"1";"4";"169";"73";"1,543";"10";"0";"0";"184";"0";"10078"
"31.10.2022, 09:30";"1667212201";"83";"2";"5";"174";"71";"1,298";"10";"0";"0";"176";"0";"10070"
"31.10.2022, 09:40";"1667212801";"59";"1";"4";"177";"70";"447";"9";"0";"0";"187";"0";"10070"
"31.10.2022, 09:50";"1667213401";"102";"1";"4";"177";"70";"298";"1";"0";"0";"178";"0";"10070"
"31.10.2022, 10:00";"1667214001";"79";"1";"4";"178";"70";"106";"0";"0";"0";"182";"0";"10070"
"31.10.2022, 10:10";"1667214601";"52";"1";"5";"180";"70";"200";"0";"0";"0";"186";"0";"10070"
"31.10.2022, 10:20";"1667215201";"50";"2";"5";"181";"68";"264";"0";"0";"0";"180";"0";"10070"
"31.10.2022, 10:30";"1667215801";"78";"2";"6";"181";"68";"196";"0";"0";"0";"188";"0";"10061"
"31.10.2022, 10:40";"1667216401";"78";"3";"6";"182";"68";"388";"4";"0";"0";"186";"0";"10061"
"31.10.2022, 10:50";"1667217001";"83";"2";"5";"182";"68";"288";"0";"0";"0";"185";"0";"10061"
"31.10.2022, 11:00";"1667217601";"92";"1";"5";"183";"68";"285";"0";"0";"0";"187";"0";"10061"
"31.10.2022, 11:10";"1667218201";"107";"2";"5";"184";"68";"168";"0";"0";"0";"185";"0";"10061"
"31.10.2022, 11:20";"1667218801";"51";"2";"6";"185";"67";"136";"0";"0";"0";"190";"0";"10061"
"31.10.2022, 11:30";"1667219401";"81";"1";"3";"187";"67";"187";"0";"0";"0";"195";"0";"10054"
"31.10.2022, 11:40";"1667220001";"87";"2";"4";"191";"65";"504";"7";"0";"0";"195";"0";"10054"
"31.10.2022, 11:50";"1667220601";"79";"1";"4";"192";"65";"365";"3";"0";"0";"192";"0";"10054"
"31.10.2022, 12:00";"1667221201";"63";"2";"5";"194";"64";"832";"10";"0";"0";"196";"0";"10054"
"31.10.2022, 12:10";"1667221801";"90";"2";"4";"196";"62";"1,141";"10";"0";"0";"193";"0";"10054"
"31.10.2022, 12:20";"1667222401";"95";"2";"6";"198";"62";"1,200";"10";"0";"0";"191";"0";"10054"
"31.10.2022, 12:30";"1667223001";"91";"3";"8";"199";"61";"585";"6";"0";"0";"192";"0";"10037"
"31.10.2022, 12:40";"1667223601";"88";"3";"8";"199";"60";"345";"0";"0";"0";"194";"0";"10037"
"31.10.2022, 12:50";"1667224201";"92";"3";"7";"200";"60";"386";"1";"0";"0";"192";"0";"10037"
"31.10.2022, 13:00";"1667224801";"107";"4";"8";"200";"60";"302";"0";"0";"0";"191";"0";"10037"
"31.10.2022, 13:10";"1667225401";"101";"3";"6";"200";"60";"259";"0";"0";"0";"193";"0";"10037"
"31.10.2022, 13:20";"1667226001";"79";"2";"5";"201";"59";"285";"0";"0";"0";"193";"0";"10037"
"31.10.2022, 13:30";"1667226601";"93";"3";"6";"202";"58";"320";"0";"0";"0";"190";"0";"10030"
"31.10.2022, 13:40";"1667227202";"113";"3";"8";"203";"54";"399";"4";"0";"0";"192";"0";"10030"
"31.10.2022, 13:50";"1667227801";"109";"5";"10";"204";"53";"325";"0";"0";"0";"192";"0";"10030"
"31.10.2022, 14:00";"1667228401";"110";"3";"7";"203";"53";"245";"0";"0";"0";"189";"0";"10030"
"31.10.2022, 14:10";"1667229001";"96";"2";"6";"203";"53";"288";"1";"0";"0";"187";"0";"10030"
"31.10.2022, 14:20";"1667229601";"93";"3";"6";"202";"53";"205";"0";"0";"0";"189";"0";"10030"
"31.10.2022, 14:30";"1667230201";"91";"2";"5";"201";"54";"132";"0";"0";"0";"185";"0";"10021"
"31.10.2022, 14:40";"1667230801";"93";"2";"5";"200";"54";"145";"0";"0";"0";"182";"0";"10021"
"31.10.2022, 14:50";"1667231401";"113";"2";"5";"197";"55";"240";"0";"0";"0";"173";"0";"10021"
"31.10.2022, 15:00";"1667232001";"91";"2";"5";"194";"57";"52";"0";"0";"0";"171";"0";"10021"
"31.10.2022, 15:10";"1667232601";"87";"2";"5";"191";"57";"10";"0";"0";"0";"168";"0";"10021"
"31.10.2022, 15:20";"1667233201";"75";"2";"5";"189";"60";"11";"0";"0";"0";"165";"0";"10021"
"31.10.2022, 15:30";"1667233801";"70";"1";"4";"182";"64";"11";"0";"0";"0";"155";"0";"10016"
"31.10.2022, 15:40";"1667234401";"85";"1";"4";"180";"63";"10";"0";"0";"0";"155";"0";"10016"
"31.10.2022, 15:50";"1667235001";"102";"1";"4";"176";"65";"10";"0";"0";"0";"152";"0";"10016"
"31.10.2022, 16:00";"1667235601";"94";"0";"2";"172";"68";"10";"0";"0";"0";"151";"0";"10016"
"31.10.2022, 16:10";"1667236201";"68";"0";"3";"168";"70";"11";"0";"0";"0";"147";"0";"10016"
"31.10.2022, 16:20";"1667236801";"140";"0";"2";"166";"70";"9";"0";"0";"0";"148";"0";"10016"
"31.10.2022, 16:30";"1667237401";"282";"0";"3";"166";"70";"6";"0";"0";"0";"149";"0";"10014"
"31.10.2022, 16:40";"1667238001";"71";"1";"6";"169";"64";"10";"0";"0";"0";"157";"0";"10014"
"31.10.2022, 16:50";"1667238601";"124";"2";"8";"176";"60";"9";"0";"0";"0";"159";"0";"10014"
"31.10.2022, 17:00";"1667239201";"151";"3";"7";"180";"57";"9";"0";"0";"0";"162";"0";"10014"